Location: Newark
(9.4667°S, 159.8167°E)
Time: 01:47:11
(UTC+00:00)

Envisat - Visible Passes

Search period start: 22 March 2019 00:00
Search period end: 01 April 2019 00:00
Orbit: 764 x 766 km, 98.2° (Epoch: 21 March)

Date Brightness Start Highest point End Pass type
(mag) Time Alt. Az. Time Alt. Az. Time Alt. Az.
22 Mar 2.9 08:23:12 10° SSE 08:28:18 74° ENE 08:33:21 10° N visible
23 Mar 3.9 07:47:23 10° SE 07:51:36 26° E 07:55:46 10° NNE visible
23 Mar 5.6 09:26:47 10° SSW 09:30:20 19° WSW 09:33:51 10° WNW visible
24 Mar 3.8 08:48:48 10° S 08:53:45 53° WSW 08:58:40 10° NNW visible
25 Mar 3.1 08:12:07 10° SSE 08:17:06 54° ENE 08:22:02 10° N visible
26 Mar 5.1 09:15:01 10° SSW 09:19:10 26° WSW 09:23:18 10° NW visible
27 Mar 3.2 08:37:29 10° S 08:42:34 72° WSW 08:47:36 10° NNW visible
28 Mar 3.4 08:01:09 10° SSE 08:05:54 39° E 08:10:36 10° N visible
28 Mar 6.0 09:42:31 10° SW 09:44:32 12° WSW 09:46:32 10° W visible
29 Mar 4.6 09:03:25 10° SSW 09:08:00 34° WSW 09:12:33 10° NW visible
30 Mar 2.9 08:26:16 10° SSE 08:31:23 84° ENE 08:36:27 10° N visible
31 Mar 3.8 07:50:18 10° SE 07:54:41 29° E 07:59:03 10° NNE visible
31 Mar 5.7 09:30:11 10° SW 09:33:23 17° WSW 09:36:35 10° WNW visible
